Wind_Speed
4 3 3 2 2 2 2 1 1 2 2 2 2 3 3 2 3 3 3 2 3 2 1 1 2 3 3 4 5 5 5 3 2 4 4 2 2 3 4 5 4 5 4 3 3 2 1 5 7 5 5 4 4 2 3 3 3 4 3 3 2 3 4 6 8 7 4 2 5 4 4 6 3 3 1 0 2 2 1 3 3 3 5 6 3 1 8 18
5 4 3 3 3 2 2 1 2 3 2 2 3 3 3 3 3 3 2 2 2 2 1 1 1 2 3 4 4 5 4 1 4 6 5 2 2 4 5 5 5 5 4 4 4 4 4 3 4 6 6 3 3 3 2 3 4 4 3 3 3 5 5 5 7 6 2 1 5 4 2 4 4 4 3 2 2 3 1 4 3 4 6 6 5 4 11 18
6 5 4 4 3 2 2 1 2 3 3 3 3 3 3 3 3 3 3 2 2 2 1 1 1 2 2 3 4 5 2 2 4 4 4 3 4 6 6 5 6 5 5 5 5 5 5 3 3 6 5 4 2 3 3 4 2 2 4 2 5 6 4 4 6 6 4 3 6 4 2 1 2 3 2 3 1 1 3 5 2 5 9 6 5 8 13 17
7 6 4 3 3 2 2 1 1 3 3 3 3 3 4 3 3 3 2 2 2 2 2 1 0 1 2 3 3 3 1 4 2 1 2 3 5 6 6 6 6 6 6 5 5 6 6 6 7 6 5 3 4 3 3 3 1 2 3 3 4 3 1 3 6 5 4 3 5 5 3 1 2 2 2 5 3 3 6 7 7 9 9 6 5 9 14 16
7 6 5 3 3 2 2 1 1 1 2 2 3 3 4 3 3 3 2 3 2 2 2 1 0 2 2 3 3 2 3 5 1 1 2 4 6 6 5 7 6 6 6 5 4 5 6 6 7 6 5 3 4 4 2 3 2 3 1 3 4 3 2 1 4 4 3 3 4 6 4 3 2 2 2 7 6 5 5 6 8 9 5 4 7 11 12 13
7 6 5 4 3 2 2 2 2 2 1 0 2 3 3 3 3 3 3 3 2 2 1 1 1 2 2 3 3 2 4 2 2 1 2 4 6 4 5 7 7 7 7 5 4 5 5 6 7 4 4 3 3 3 1 4 2 3 1 1 3 2 1 1 1 3 3 5 6 5 4 3 4 1 2 6 9 7 4 4 5 6 5 4 8 11 10 11
7 6 5 4 3 3 2 2 2 2 2 2 1 2 3 2 2 3 3 3 2 2 2 2 2 2 2 3 2 4 5 1 1 3 3 4 4 3 6 6 7 7 5 6 6 4 5 7 6 3 4 4 1 2 1 3 3 5 1 1 2 2 0 2 0 2 3 5 6 3 3 3 4 3 1 5 12 7 3 2 3 5 5 5 7 10 11 13
4 6 5 4 4 3 2 2 2 2 2 2 2 2 3 3 4 4 3 3 3 3 2 2 3 2 3 2 2 4 3 1 0 4 4 4 4 3 4 5 7 6 6 9 6 4 4 6 5 4 4 2 3 2 1 1 5 5 2 2 1 1 2 1 3 3 1 1 1 3 3 2 4 3 0 8 12 7 4 1 0 1 3 6 7 9 11 12
4 4 4 4 4 4 3 3 3 2 2 2 2 3 3 3 4 4 4 3 4 4 3 3 3 3 3 3 5 4 2 2 1 5 5 4 4 3 3 5 7 5 7 9 6 5 3 2 3 4 4 2 4 2 2 2 1 2 3 2 2 1 3 1 3 4 2 0 1 3 1 3 2 1 4 10 8 4 2 1 2 2 4 6 6 8 10 10
5 5 5 5 6 6 5 6 5 4 3 3 3 4 3 3 3 3 3 4 4 4 4 4 3 4 3 3 6 3 2 3 2 5 4 5 4 4 4 6 6 6 8 8 8 8 3 5 4 5 6 3 3 2 2 2 2 3 4 3 3 1 2 2 3 2 2 0 1 3 2 4 2 1 5 5 3 1 2 1 2 1 4 5 5 6 9 10
6 5 5 6 8 7 5 5 5 5 5 4 5 5 3 3 3 3 2 3 4 5 4 4 4 4 4 5 6 2 1 4 3 4 4 5 4 4 6 7 6 6 7 8 9 8 5 8 8 6 3 2 3 3 2 1 2 2 4 4 4 4 1 3 3 1 2 1 1 3 1 4 3 2 6 3 3 2 2 4 3 3 5 4 5 5 6 10
6 6 5 5 6 6 5 4 4 5 5 6 6 6 5 3 3 3 2 3 3 4 4 4 4 4 4 5 3 4 2 4 3 4 4 5 6 6 7 8 7 7 6 7 7 6 7 8 8 6 1 3 3 2 1 2 2 1 2 3 5 7 3 3 1 2 1 2 2 3 1 5 3 8 7 2 2 2 0 5 4 4 5 4 5 4 5 9
6 6 6 5 6 6 5 4 4 4 4 5 5 6 6 4 3 3 3 3 3 4 4 4 4 3 4 2 1 4 3 3 3 5 5 6 7 7 8 8 8 8 7 9 7 7 7 5 7 7 3 5 3 1 3 4 3 1 2 3 3 6 4 4 3 3 1 2 1 1 2 6 8 13 7 3 1 2 2 6 5 5 5 5 5 4 5 8
6 6 6 5 6 5 4 4 4 4 4 5 5 6 6 5 4 2 3 4 4 4 4 5 4 4 4 1 2 2 2 3 4 6 7 6 8 9 10 8 8 9 9 10 10 9 8 6 9 8 3 4 3 1 4 5 4 1 2 2 2 1 3 5 3 1 3 1 3 2 3 6 9 12 6 4 1 3 5 7 5 6 5 5 5 5 6 8
6 6 5 5 4 4 4 4 3 3 4 4 5 6 5 5 4 3 4 4 4 5 5 5 4 4 4 1 2 2 1 3 5 6 7 7 7 8 8 8 9 10 10 11 11 11 9 6 8 6 1 1 3 4 4 4 4 3 1 2 3 1 4 7 2 1 2 1 4 3 4 6 9 10 5 4 1 3 6 7 6 7 6 6 5 6 6 7
6 5 5 4 3 2 3 3 3 3 3 4 5 6 6 5 5 5 5 5 6 6 5 5 4 5 3 1 1 1 1 4 5 6 7 7 7 7 10 10 9 10 9 9 9 9 9 7 5 3 2 2 4 5 3 4 4 4 1 2 2 1 3 5 1 1 0 1 2 1 2 4 6 6 4 2 3 3 4 8 8 8 8 6 5 6 6 7
5 5 4 3 2 1 2 2 3 3 3 3 5 7 7 6 6 6 6 7 7 5 5 5 5 5 2 0 1 1 2 3 5 7 7 7 7 10 11 8 7 8 8 7 6 4 7 7 1 1 3 3 3 5 3 2 3 4 2 1 3 2 1 3 2 2 3 2 1 1 3 7 8 7 7 2 4 3 4 9 9 8 7 6 6 6 7 8
5 5 4 3 2 2 2 2 3 4 3 3 5 8 8 8 8 7 8 8 7 7 6 4 4 3 1 1 1 0 2 3 6 8 8 9 9 10 9 6 5 6 6 5 4 4 4 4 2 2 3 3 2 5 3 4 3 3 2 1 2 2 2 3 3 1 2 2 2 3 5 12 13 11 11 6 4 4 8 9 9 8 8 7 6 7 9 8
5 5 4 3 3 2 2 3 4 3 2 3 7 9 10 8 7 6 5 5 4 3 1 2 3 3 3 1 0 2 4 5 6 6 7 9 10 10 10 8 6 6 4 1 2 3 2 3 4 2 1 2 5 6 6 7 6 6 5 4 3 2 3 5 5 4 1 1 4 6 7 12 13 11 12 7 3 4 9 8 8 9 8 8 8 8 10 9
6 5 5 4 4 2 2 4 5 3 2 4 7 7 6 5 4 2 1 0 3 4 3 3 4 3 2 1 1 5 6 5 3 3 6 9 10 11 8 6 7 6 3 3 1 2 3 3 2 5 6 7 8 6 6 6 6 7 5 4 3 3 4 5 3 5 1 2 6 6 7 12 13 13 13 7 1 4 9 10 11 10 9 9 10 11 11 11
6 6 5 5 5 3 2 3 5 4 1 3 6 3 2 4 3 1 2 2 3 3 3 2 2 2 2 2 4 6 4 3 3 2 7 7 7 7 1 4 5 3 1 2 1 2 5 3 6 7 7 7 6 6 8 6 6 6 5 3 0 3 6 5 2 4 2 2 5 3 5 13 14 13 12 6 4 8 11 12 13 13 11 10 10 13 12 10
8 7 6 6 6 4 3 1 5 5 1 2 4 1 1 3 4 3 2 0 3 1 2 2 1 2 1 3 6 6 3 3 1 1 6 5 3 4 1 4 5 3 1 1 2 3 3 4 7 4 6 6 5 6 7 6 5 4 3 2 2 3 4 5 2 4 1 2 4 4 5 12 13 14 14 9 9 11 11 12 14 12 11 11 11 12 11 10
10 9 6 6 6 6 5 1 4 5 1 1 2 1 1 3 6 4 3 2 3 2 2 2 2 3 2 1 7 8 3 3 3 4 8 7 2 3 4 5 5 4 2 3 5 4 2 6 6 4 8 8 6 4 7 6 3 2 4 4 3 3 1 3 4 3 1 2 2 4 5 9 10 12 14 11 8 9 10 12 13 11 12 15 13 10 9 11
13 10 8 7 6 7 6 1 3 4 1 1 4 3 3 5 6 3 3 3 3 4 1 4 3 4 5 3 8 10 3 3 4 4 11 10 4 3 5 5 5 4 4 6 7 6 5 5 1 4 6 8 7 4 6 6 1 2 4 5 4 4 4 4 4 3 2 2 1 2 6 7 6 8 11 7 4 7 7 8 11 11 13 14 12 10 11 12
13 11 10 9 8 9 8 2 2 2 1 2 4 5 5 6 5 3 3 3 3 5 3 3 2 5 7 5 9 9 2 2 4 5 12 12 7 4 2 3 4 4 6 5 7 4 6 5 5 6 4 6 7 4 5 7 3 4 4 8 9 7 5 3 3 5 4 4 2 1 3 6 4 6 9 5 6 9 5 5 11 12 10 9 9 12 12 11
12 12 11 11 11 12 8 2 3 2 2 2 2 7 8 7 5 4 4 4 3 4 1 3 3 5 8 6 7 6 2 4 4 3 10 10 6 5 3 2 2 3 6 5 4 3 3 1 3 6 5 6 6 2 6 7 5 2 4 7 8 5 5 3 1 2 1 4 3 2 2 6 6 8 11 6 8 12 8 8 12 12 10 8 9 11 9 9
8 11 12 13 15 15 8 3 4 2 0 2 3 11 11 7 5 2 4 4 4 3 3 2 1 4 7 5 6 7 2 5 1 4 5 5 3 3 4 4 2 2 4 4 1 3 4 3 3 6 6 6 5 3 6 8 7 3 3 4 6 7 6 5 5 3 3 3 3 2 3 4 6 8 9 4 7 11 11 12 13 11 12 10 9 10 9 8
6 8 11 14 17 17 9 5 8 6 2 1 5 14 13 8 4 2 4 1 3 2 4 1 1 3 2 1 3 5 2 1 4 1 2 3 1 3 3 7 6 6 4 5 4 4 3 6 6 7 5 4 5 4 8 11 6 4 3 5 6 6 5 5 5 3 1 3 4 2 4 3 7 7 5 2 5 10 12 13 13 11 11 10 9 9 7 7
6 6 9 14 18 19 14 8 6 5 3 2 6 16 14 7 3 4 5 2 2 1 1 1 2 1 2 2 1 3 2 2 2 2 3 3 1 4 3 6 6 7 3 3 5 3 1 5 7 7 5 5 4 1 5 8 4 3 5 7 6 6 5 5 4 3 3 3 4 6 6 3 6 6 4 1 3 8 11 11 10 10 9 8 8 7 6 5
7 7 7 13 20 21 16 10 7 5 4 3 9 17 13 5 2 4 2 3 1 1 0 1 2 1 5 6 1 3 3 2 1 1 3 1 3 6 2 2 6 6 0 4 1 3 1 1 2 4 4 5 5 4 2 4 5 6 6 6 7 5 4 4 2 4 3 4 4 8 10 5 4 6 4 5 5 6 7 7 8 8 8 8 6 5 5 4
7 7 7 13 22 23 15 9 11 10 6 6 12 15 9 2 3 4 5 1 1 1 2 1 1 4 8 8 2 0 2 2 1 3 2 1 2 4 1 1 4 4 2 4 3 2 2 1 2 2 2 5 7 5 4 4 5 6 4 4 4 3 4 4 4 3 2 5 3 5 5 3 4 7 4 6 7 5 6 6 8 8 8 8 4 4 4 3
6 7 8 13 22 24 15 9 15 15 9 11 13 7 3 2 2 5 5 2 1 3 4 3 2 5 8 5 3 5 4 1 2 4 4 3 4 4 4 5 5 2 2 6 3 2 2 4 3 1 1 4 6 6 5 4 2 4 5 5 4 2 3 2 3 0 3 6 3 2 1 1 7 9 8 12 13 11 9 9 10 9 10 9 4 4 4 2
6 9 8 11 20 25 18 12 15 16 13 16 14 6 2 4 6 9 8 3 1 2 2 3 2 4 8 6 3 5 3 2 4 3 2 4 5 5 4 4 6 3 2 5 2 0 3 5 1 2 1 3 7 6 3 2 3 5 6 5 4 2 1 3 3 1 4 5 2 3 2 2 5 7 11 18 18 14 9 9 11 10 12 11 6 4 5 4
4 8 8 9 15 22 20 16 16 18 18 17 11 4 2 4 4 7 9 5 0 1 2 3 4 4 5 4 3 4 3 2 5 4 2 4 4 5 5 6 6 2 3 4 3 5 5 6 5 7 3 6 10 8 6 7 5 5 4 5 5 5 5 5 3 3 5 4 2 2 2 4 4 4 8 12 13 11 7 8 9 9 11 10 7 6 7 7
2 6 7 8 10 16 19 18 18 22 21 13 6 4 6 6 2 3 7 4 1 2 3 3 6 5 3 2 3 3 4 2 4 4 3 5 5 6 6 7 9 5 4 4 2 3 5 7 6 3 1 9 11 4 5 8 3 2 2 4 4 5 5 2 3 5 3 2 3 2 4 5 5 6 9 7 8 9 8 7 7 9 10 7 7 8 7 6
2 3 6 8 8 11 16 18 21 25 19 9 4 5 7 7 3 3 4 3 3 4 5 3 4 4 4 2 2 4 1 2 4 3 2 3 3 5 6 6 10 11 9 7 3 2 3 5 5 3 1 5 6 2 3 4 3 2 2 4 4 3 7 4 2 1 3 2 4 2 5 6 3 7 10 8 8 9 8 8 8 10 8 5 7 8 6 6
2 3 4 8 10 11 14 18 24 24 14 6 5 6 4 3 3 3 3 2 3 5 7 3 2 4 5 3 3 5 2 1 3 3 3 2 2 6 7 4 6 13 14 8 3 3 5 3 5 2 1 2 1 2 3 2 3 6 4 6 3 2 4 4 2 2 2 3 5 2 6 6 3 5 6 5 9 11 10 10 10 8 7 7 9 7 6 6
4 4 4 9 13 13 14 21 25 19 7 4 5 4 3 3 3 3 2 2 3 4 5 4 4 4 5 5 4 5 4 3 4 5 4 3 4 7 9 5 5 13 15 7 2 3 4 2 5 1 2 3 3 3 2 4 3 5 5 4 4 3 2 2 3 3 2 3 4 4 5 5 5 6 4 5 9 12 13 12 9 9 10 10 9 7 5 4
3 2 4 8 15 15 16 24 23 10 2 4 6 4 5 6 3 2 3 2 2 4 4 3 3 2 3 5 3 4 6 6 7 6 4 4 5 5 9 8 5 9 12 9 5 2 3 3 4 2 1 1 3 2 5 2 2 3 1 2 2 2 4 3 3 3 4 3 3 4 5 5 7 7 7 10 12 12 12 9 8 11 11 9 7 6 5 4
1 1 2 5 15 19 21 23 14 5 2 5 6 4 4 5 3 3 4 1 1 2 3 3 3 3 3 4 3 3 6 6 7 6 4 5 5 4 6 8 3 3 6 9 7 1 2 3 4 2 3 1 3 5 8 9 6 4 3 4 3 1 2 1 1 2 4 3 2 2 5 9 7 5 9 12 11 11 10 9 9 10 9 7 7 6 5 5
2 2 2 5 18 24 23 15 5 3 4 5 6 5 3 3 4 4 3 0 1 1 1 2 4 3 2 3 2 3 4 4 5 5 3 5 6 4 5 7 7 6 6 6 7 5 3 3 3 2 1 4 5 4 5 9 9 8 8 8 9 6 4 3 3 1 2 3 4 3 5 12 6 5 8 9 8 9 9 10 10 7 7 7 7 5 6 6
2 3 1 7 23 27 16 6 3 3 4 5 8 6 3 3 3 5 5 3 4 2 1 1 4 3 3 3 3 4 4 3 4 4 3 6 8 6 4 3 8 10 8 5 6 5 4 3 3 3 4 6 4 2 1 4 4 4 4 5 6 6 6 6 5 4 2 1 2 3 3 11 5 4 7 7 6 6 6 7 8 7 8 7 5 5 6 6
2 2 3 6 28 29 10 3 5 4 5 7 7 4 3 3 3 5 6 6 6 4 3 2 3 5 6 5 4 4 4 4 5 6 5 5 7 8 5 5 8 8 6 2 2 2 3 2 3 4 3 2 3 3 2 1 2 3 4 2 3 4 5 4 4 4 3 3 2 3 4 11 5 1 4 4 4 5 4 6 8 7 7 5 4 5 6 6
1 2 3 4 22 24 9 5 7 6 7 7 6 4 3 3 5 6 7 8 7 5 4 3 3 5 6 4 5 6 6 5 4 7 8 6 6 5 6 10 10 7 5 3 3 5 4 3 5 4 3 3 3 2 1 1 1 3 4 3 5 7 5 4 1 2 2 6 8 5 7 10 4 3 3 3 4 6 6 5 6 7 7 5 5 6 6 4
1 1 2 5 10 11 4 2 3 5 9 10 8 7 7 5 6 9 9 9 7 5 5 5 5 5 4 5 5 6 7 7 6 6 7 6 5 2 4 10 11 8 7 3 3 5 5 4 6 6 6 7 6 5 4 3 2 1 4 6 8 9 10 5 3 3 5 9 9 6 10 12 4 4 4 5 4 6 8 5 5 6 7 7 6 5 5 3
1 1 2 3 4 3 2 0 0 2 6 9 8 7 10 8 4 6 8 7 7 7 6 5 6 6 5 7 8 8 9 11 9 6 5 6 4 2 3 9 10 10 10 6 5 4 2 2 7 10 11 11 11 9 4 6 6 5 8 9 9 10 12 9 5 6 10 11 7 8 15 17 12 4 5 7 5 5 8 6 5 7 7 8 7 6 5 4
2 2 3 3 1 3 4 3 4 3 3 5 5 5 10 12 6 4 7 7 7 9 7 4 6 8 8 9 10 9 10 11 9 8 8 6 4 2 1 5 8 10 8 6 4 4 3 3 7 10 12 13 14 13 6 8 8 12 13 12 12 12 12 12 11 14 13 10 11 15 16 17 20 13 8 8 8 8 9 7 7 7 7 7 7 6 5 4
3 2 3 3 1 3 6 5 6 8 7 4 3 4 8 12 10 7 6 5 7 9 7 4 7 11 13 12 10 8 9 9 9 10 10 7 4 1 1 2 5 5 6 5 4 4 4 6 8 9 12 14 16 14 7 8 7 8 12 14 15 15 15 16 19 21 18 12 13 18 15 16 22 19 12 12 10 9 9 9 7 6 6 6 7 7 6 5
2 0 2 1 0 2 3 2 4 7 10 7 4 4 5 9 12 10 6 4 5 8 9 9 12 14 15 13 10 8 9 8 8 10 10 8 6 3 2 4 3 2 5 6 4 2 4 7 11 11 12 14 17 16 9 9 7 6 8 11 13 15 19 22 23 24 22 17 16 20 20 19 22 18 12 11 10 9 8 6 4 4 6 8 8 8 7 7
3 2 2 1 1 1 1 3 4 3 5 6 5 5 4 7 10 8 5 7 6 7 11 14 15 13 14 14 13 13 12 12 12 12 9 8 7 5 5 5 2 1 2 4 2 0 2 6 7 7 7 11 17 19 13 9 7 9 9 7 10 15 20 23 22 19 17 17 20 22 21 21 20 11 8 8 8 7 8 7 6 7 9 11 11 10 9 8
4 3 4 3 0 4 2 1 3 2 2 4 5 6 6 8 10 7 5 8 9 8 10 15 17 13 11 14 16 17 17 15 15 14 10 9 9 7 5 6 6 4 2 3 2 2 3 3 1 4 5 10 15 18 16 9 6 9 10 10 15 19 18 17 15 14 15 17 19 18 15 20 16 6 6 9 8 9 11 11 10 11 11 13 14 13 11 9
6 3 4 3 1 3 3 2 4 4 5 5 6 7 7 7 6 5 4 5 9 10 9 12 16 11 9 14 18 19 19 17 16 14 9 8 9 8 6 8 9 8 6 5 4 4 6 4 3 4 5 10 15 15 10 7 6 9 14 20 25 22 15 10 11 17 20 17 14 13 15 21 15 6 7 11 8 9 12 11 11 13 14 14 14 12 10 10
Wind_Direction
144 143 142 137 133 112 102 106 190 200 191 198 197 205 216 215 208 200 189 171 166 174 187 241 306 328 337 342 349 356 0 3 94 95 90 97 64 63 72 71 60 46 42 24 43 131 93 31 24 52 93 57 17 351 24 22 53 58 76 101 153 176 200 188 178 190 169 197 205 211 187 148 183 222 165 120 35 25 300 288 277 282 251 226 222 120 160 164
143 143 138 133 136 133 123 119 207 198 183 194 200 210 210 211 216 207 193 178 175 185 194 232 316 325 340 351 353 360 358 34 106 77 65 91 87 89 91 78 64 51 53 55 59 86 89 22 11 54 61 45 355 359 38 6 50 85 107 114 205 195 204 197 173 180 174 169 172 176 173 160 187 174 141 207 303 2 290 273 304 298 268 229 210 170 163 165
149 147 139 141 152 149 135 140 213 193 177 191 200 211 207 206 209 205 198 187 184 191 201 231 316 335 358 357 358 2 354 112 89 52 50 83 106 109 98 82 70 58 55 61 66 73 97 115 78 74 57 54 12 7 44 10 18 131 114 126 232 209 214 217 179 185 205 163 144 160 161 171 215 165 156 198 233 351 228 241 228 251 254 221 188 169 166 171
157 160 152 150 165 156 132 106 215 189 174 185 191 202 204 205 205 201 200 192 193 195 195 193 313 358 5 357 9 0 37 89 74 339 73 87 112 111 97 83 69 60 55 58 75 79 94 100 79 70 69 55 346 19 53 351 327 119 108 170 223 196 165 206 195 196 200 165 143 145 123 170 227 171 162 157 164 264 242 228 212 228 236 209 184 173 171 177
162 165 158 155 162 141 120 116 123 164 168 182 186 192 200 208 204 194 194 197 196 190 184 159 56 20 10 10 15 331 40 75 208 220 90 108 117 110 93 74 62 60 50 49 80 88 88 79 65 53 58 56 354 30 48 317 75 78 60 185 191 162 98 192 207 193 168 126 115 129 150 185 157 136 166 160 188 237 230 216 214 227 221 183 184 178 175 182
172 171 168 165 150 118 105 107 75 81 103 126 161 174 191 204 195 187 187 188 191 181 163 123 75 28 17 25 19 16 78 90 245 172 128 128 120 110 86 61 53 53 41 53 78 86 77 51 57 54 54 60 13 61 73 304 47 94 330 229 207 196 79 2 236 193 152 125 141 160 176 142 114 214 194 182 220 226 207 202 211 242 240 198 175 171 178 189
179 178 178 176 162 143 125 119 97 84 71 49 106 147 161 172 169 174 176 174 176 156 125 100 64 40 36 40 35 52 84 107 261 147 155 133 131 113 81 53 46 44 38 54 58 90 82 54 76 116 81 72 167 116 49 308 35 90 120 290 205 186 284 323 10 160 143 149 184 182 135 127 165 207 77 219 239 237 229 239 238 259 240 200 170 176 192 196
165 177 176 166 157 153 150 139 117 91 69 53 89 114 125 142 149 152 152 158 153 135 114 92 71 59 45 59 82 50 51 346 176 149 151 136 138 106 76 46 41 43 59 53 50 127 102 70 115 148 83 82 167 124 351 358 38 69 140 226 142 143 303 322 86 83 93 165 187 119 125 210 205 174 299 244 244 248 253 304 299 221 171 184 188 196 200 200
130 142 144 137 127 118 105 96 80 77 58 30 54 70 84 108 134 143 147 154 143 134 116 97 80 68 63 78 92 78 320 331 125 156 144 143 131 90 60 42 42 49 72 55 48 103 108 129 171 173 136 144 139 97 340 78 67 135 145 178 121 22 330 39 88 47 14 326 85 132 137 297 253 178 267 255 253 258 236 60 42 115 154 196 205 208 204 205
134 115 119 115 102 93 80 75 61 60 52 29 30 41 62 83 108 126 139 147 139 131 116 107 97 83 91 91 82 92 280 23 113 160 136 143 128 87 51 44 49 63 77 59 53 66 82 167 168 142 133 121 107 61 344 91 148 143 127 137 97 35 326 81 118 25 353 39 107 182 243 303 321 321 257 268 318 355 179 226 335 163 207 223 221 225 215 217
144 121 121 118 105 93 79 72 57 51 47 42 34 31 54 75 89 97 111 128 130 124 115 110 102 95 98 91 97 160 226 59 110 149 135 140 120 85 60 55 62 80 85 66 61 58 78 145 139 118 116 112 106 36 348 103 108 99 123 134 16 359 19 60 108 13 355 143 164 149 226 305 2 267 238 269 343 352 196 234 284 251 249 249 239 245 226 229
149 131 125 129 119 103 92 83 66 59 52 53 42 35 48 71 100 96 95 111 113 110 111 106 100 111 91 72 113 181 152 82 112 139 142 133 110 90 71 67 69 80 94 84 71 61 91 136 117 90 75 139 124 32 111 99 77 97 110 142 330 358 18 356 24 314 339 151 197 132 314 286 228 229 241 313 334 18 320 249 272 260 261 267 254 260 241 239
155 143 130 127 122 110 105 97 82 75 67 66 55 48 48 63 99 98 104 110 105 102 103 103 97 100 88 60 163 159 144 107 121 141 138 125 109 94 82 81 79 80 90 93 83 72 101 137 104 101 117 107 124 184 115 55 37 283 33 92 342 5 350 323 7 327 173 147 307 120 263 268 242 244 256 338 294 88 288 258 263 261 264 268 260 265 257 246
160 149 138 127 121 113 105 93 85 78 79 79 71 67 58 66 89 93 108 111 109 104 95 103 106 90 83 178 195 140 178 151 135 147 142 137 120 101 92 89 89 89 87 88 84 75 94 116 95 98 90 84 139 114 51 14 21 31 13 45 26 34 277 301 348 2 158 160 9 101 236 268 266 265 277 321 258 168 251 258 258 260 262 264 264 261 258 249
158 149 138 129 123 120 111 93 82 73 83 94 88 84 73 75 84 84 105 117 115 112 108 110 116 99 70 301 203 111 184 159 144 148 145 148 134 111 104 102 99 96 91 87 85 77 80 96 81 77 56 19 79 74 32 357 21 38 19 316 355 152 269 308 332 145 159 332 24 112 236 275 270 271 298 329 55 152 249 263 267 263 260 258 259 255 257 260
155 146 139 131 126 121 107 88 81 75 80 96 100 100 92 89 92 96 111 115 115 116 110 110 110 109 96 304 176 94 102 136 137 142 143 154 152 130 120 113 100 97 99 89 88 80 59 63 66 65 131 76 71 84 50 13 356 359 63 226 271 167 285 317 342 282 258 29 12 160 235 279 275 277 314 354 118 134 257 270 269 259 259 255 251 253 254 263
163 151 142 133 116 80 73 75 84 78 79 101 111 110 103 102 102 108 117 111 115 112 102 116 111 100 99 176 165 340 39 116 134 139 135 137 145 138 124 106 92 99 98 82 82 66 34 45 80 349 55 61 89 96 66 351 291 317 26 207 240 195 235 299 306 325 26 69 236 260 241 253 267 279 291 287 140 152 250 265 268 262 260 253 248 254 251 253
173 163 147 131 114 76 11 21 71 72 80 108 118 112 106 109 110 115 125 121 111 89 85 103 90 82 273 242 151 311 48 109 128 132 130 126 134 138 123 99 98 91 69 48 45 38 20 32 60 58 32 17 83 106 137 217 212 193 172 165 254 246 225 265 276 275 25 39 253 272 266 260 267 275 278 271 152 187 249 258 268 271 266 259 252 250 249 247
187 177 159 142 128 92 359 4 41 55 74 117 130 117 103 100 101 112 123 122 122 102 125 196 123 132 208 255 66 88 90 107 123 131 129 125 127 121 102 88 86 78 74 60 5 20 48 53 60 114 185 214 188 164 176 193 158 152 167 143 159 209 248 241 249 270 261 74 263 247 251 265 270 271 274 277 151 205 259 268 269 267 263 261 253 249 249 244
195 188 181 167 151 110 34 6 12 29 71 132 141 122 104 93 65 44 325 263 176 148 130 178 161 130 120 22 116 119 105 96 104 135 136 135 131 114 79 46 46 51 87 158 223 1 75 99 196 210 203 200 198 172 142 147 119 114 119 104 146 195 269 254 250 296 276 177 260 245 251 270 271 269 269 272 232 245 262 266 264 258 254 254 250 251 248 243
198 191 194 185 168 138 103 6 2 24 59 158 153 127 143 154 90 22 264 277 223 144 102 148 151 118 127 153 160 144 118 71 51 123 150 151 137 132 51 21 72 58 295 175 172 11 69 145 230 225 196 186 175 138 116 110 87 90 119 104 203 213 254 255 227 306 317 181 269 294 287 272 268 271 271 258 242 251 249 251 259 255 251 250 247 251 249 249
210 200 198 195 179 155 144 23 2 15 14 181 162 141 228 162 121 109 126 241 269 186 116 93 41 298 207 154 173 154 92 75 40 268 171 147 103 167 184 59 121 175 254 125 105 25 46 225 243 206 151 113 90 114 112 105 92 82 112 122 270 248 268 282 306 331 352 183 270 320 299 271 271 276 273 257 240 247 242 239 251 254 255 253 244 247 251 256
220 209 204 206 188 167 162 166 352 359 17 174 182 166 139 129 125 114 97 92 290 292 122 151 202 235 215 213 190 158 112 161 181 250 189 149 95 172 135 101 133 144 142 175 161 136 175 251 254 181 141 104 74 88 101 100 96 101 131 141 240 258 285 282 296 331 330 196 269 313 300 275 273 276 273 262 246 256 253 245 253 252 250 254 252 251 248 250
228 217 211 210 195 178 172 179 329 339 16 217 241 214 144 143 143 127 89 69 300 293 235 199 194 191 193 211 182 162 141 184 172 209 185 155 122 150 146 136 126 124 188 192 160 169 222 237 189 111 117 110 105 112 121 131 207 252 185 171 203 227 213 234 285 322 326 347 335 304 307 288 275 271 270 282 303 281 261 250 260 253 244 252 263 262 247 244
228 229 222 215 204 186 176 185 273 279 309 257 233 198 155 161 156 122 88 52 313 298 299 217 199 204 191 152 162 162 116 217 219 202 178 162 141 135 149 141 126 172 200 158 140 202 249 223 139 101 83 96 113 147 174 160 182 286 234 202 208 210 202 224 352 7 353 336 327 342 290 282 307 285 262 283 308 282 271 259 262 261 252 245 254 258 249 245
216 223 224 222 206 181 167 186 236 256 289 291 198 169 166 168 148 122 93 51 303 275 272 183 176 192 181 147 156 145 78 260 259 152 163 169 152 118 131 135 74 193 184 140 147 216 236 204 113 123 128 115 115 176 223 170 135 294 252 208 205 174 156 176 93 45 292 273 287 86 212 270 311 291 268 276 283 277 289 281 266 268 266 247 242 252 252 249
207 214 216 219 204 181 164 166 185 179 29 331 168 170 178 174 150 126 79 38 295 218 147 197 191 159 171 172 159 137 178 247 69 103 152 168 174 78 123 171 108 187 173 126 210 248 171 145 91 123 118 118 138 203 221 163 130 246 247 157 158 155 170 178 152 180 233 271 290 123 149 272 290 274 271 285 286 285 289 277 267 263 262 256 251 252 251 251
210 213 207 213 208 195 193 174 163 165 163 13 167 175 180 175 165 76 83 86 287 140 127 255 132 121 134 156 122 110 200 231 103 203 332 88 166 51 114 193 172 176 174 142 211 265 158 174 186 162 131 152 185 215 194 156 135 247 206 124 134 148 157 138 129 175 319 350 299 191 145 263 272 273 287 288 282 285 280 273 270 265 261 258 257 258 257 256
205 203 202 211 208 203 207 196 163 167 172 105 163 176 173 171 171 62 81 187 261 98 110 115 123 77 52 95 53 55 39 23 99 247 350 70 92 52 145 198 151 155 175 136 198 257 109 199 197 157 149 194 199 276 189 159 153 196 136 102 83 82 84 89 111 120 61 329 263 189 167 218 272 281 294 263 253 263 265 271 270 267 268 261 257 265 272 275
195 191 200 204 196 194 198 199 195 182 161 138 168 169 161 154 127 97 136 225 189 108 344 119 161 164 123 136 281 0 47 8 7 36 26 69 18 31 121 158 93 122 15 10 219 236 308 283 214 150 163 182 135 67 53 126 134 139 116 81 60 44 45 59 57 83 72 288 248 192 189 183 272 274 247 230 223 214 234 266 274 276 280 270 262 263 264 275
196 189 196 198 195 193 188 190 198 187 167 158 159 156 145 82 76 152 198 231 60 152 140 145 183 132 139 147 176 209 88 16 329 110 113 153 50 42 84 114 73 74 2 319 293 294 331 331 251 210 150 125 101 71 31 55 103 110 97 90 77 356 10 31 350 51 118 253 247 217 208 156 239 256 244 248 250 221 211 244 264 272 275 269 260 255 252 254
204 196 196 201 203 201 194 194 194 187 177 157 143 126 116 118 145 206 201 107 73 206 160 170 193 153 156 151 160 173 140 92 195 153 145 150 158 175 185 180 161 92 286 239 252 342 271 233 248 310 152 140 115 83 37 10 36 90 102 108 102 336 355 350 296 128 217 247 222 194 220 195 242 260 269 265 263 248 225 232 248 259 268 268 251 245 260 252
209 203 202 205 206 204 203 205 194 184 170 151 131 69 41 162 195 211 201 162 186 224 117 110 98 134 152 153 180 177 133 162 187 164 141 140 169 213 246 218 179 147 196 196 176 143 272 294 271 150 254 192 154 146 147 204 192 158 148 140 138 139 182 246 259 266 264 265 211 162 158 254 266 272 254 249 254 251 232 233 243 249 261 268 268 260 270 266
224 207 205 208 208 208 209 207 196 180 160 142 126 88 124 192 212 199 201 208 202 22 41 84 86 99 150 166 215 177 143 216 178 138 118 132 160 216 243 240 210 136 103 146 160 179 214 280 213 176 205 186 182 188 160 142 160 183 162 139 158 166 176 212 215 210 251 282 273 203 179 197 211 257 246 239 258 269 255 247 254 257 258 267 282 274 265 264
264 215 214 214 212 212 208 201 190 176 160 137 116 139 174 205 227 186 204 208 140 85 32 50 92 114 188 277 302 194 164 209 165 128 153 164 181 204 201 212 202 165 135 174 213 167 196 259 245 231 230 170 181 202 117 112 139 211 120 116 193 196 152 157 196 178 186 316 303 228 220 213 207 273 273 249 267 277 268 268 268 264 261 264 271 264 257 258
287 235 226 217 217 215 203 194 184 173 161 134 126 174 195 210 197 178 201 177 146 135 108 66 80 123 201 245 278 229 173 107 146 141 196 203 225 214 204 218 199 182 179 182 196 150 166 268 286 348 340 172 182 202 127 140 180 160 142 178 210 172 117 115 232 106 84 265 274 230 247 276 313 286 268 251 265 275 278 277 258 254 267 270 260 256 256 258
310 293 233 212 216 212 199 192 181 170 159 138 164 188 204 232 204 173 180 141 150 141 128 155 174 151 189 197 205 214 193 87 149 169 201 205 255 215 207 248 200 192 203 193 204 201 162 254 301 52 172 255 270 126 76 23 126 131 184 204 169 104 98 112 201 347 44 243 270 268 250 274 296 276 278 261 260 265 266 262 256 264 272 259 256 252 245 252
338 327 269 229 217 207 196 189 177 164 159 170 190 198 186 213 213 168 163 130 134 145 147 193 201 164 178 192 200 189 178 180 171 184 193 188 247 209 184 216 211 202 210 193 214 252 154 225 300 26 184 288 4 107 89 354 65 134 193 191 118 153 199 112 165 202 218 240 273 290 281 266 218 234 257 217 227 241 247 252 259 266 257 250 259 254 231 237
354 346 287 234 212 204 191 181 173 158 162 189 201 217 196 205 216 170 175 154 126 165 179 200 204 174 170 174 167 160 183 189 169 177 187 180 234 217 177 199 223 205 202 181 189 244 128 197 271 327 244 294 34 151 190 211 47 66 111 122 100 164 181 169 160 173 195 217 252 301 313 271 216 203 196 205 216 220 229 245 253 251 245 240 250 245 212 212
150 197 294 207 197 194 179 172 168 159 178 199 210 208 181 193 204 201 200 170 54 177 187 196 191 191 187 169 155 168 193 195 175 187 209 188 219 248 196 192 176 156 176 176 192 202 101 203 236 319 329 178 178 213 197 179 164 152 163 175 191 165 121 184 188 127 149 172 200 262 288 268 239 185 187 208 219 212 210 224 234 244 245 233 237 233 205 209
158 208 276 189 183 177 166 163 171 180 185 214 222 212 172 156 160 185 199 186 313 302 86 166 188 187 175 168 181 181 175 185 184 193 225 211 213 240 221 191 160 131 125 158 199 202 167 194 183 158 232 202 216 244 205 188 181 178 186 194 196 180 151 190 235 217 121 148 182 174 259 270 255 176 194 207 215 216 213 219 229 246 249 235 238 239 222 220
160 197 255 186 178 168 159 170 189 176 201 219 219 211 154 120 134 161 168 177 221 247 20 179 194 191 189 200 209 178 158 184 194 192 230 228 215 223 240 200 156 147 137 155 206 198 151 132 150 188 214 215 235 310 213 210 198 191 205 199 194 190 180 184 206 215 162 177 181 114 253 270 259 175 209 219 219 224 220 221 229 245 249 238 236 249 246 240
186 217 345 183 176 168 159 214 190 187 224 222 226 218 140 138 152 156 164 180 193 197 206 209 182 194 211 214 200 180 177 193 189 198 233 247 233 224 202 146 138 146 149 155 221 179 128 130 193 231 267 291 309 347 29 63 126 214 237 172 158 200 188 165 179 188 167 187 179 114 245 261 270 207 241 255 258 249 229 222 227 240 259 253 236 248 254 255
188 218 335 221 186 176 172 203 193 202 219 220 225 213 200 199 170 162 174 186 184 172 190 212 187 196 210 194 191 199 193 196 209 213 224 244 251 231 169 155 154 166 187 191 181 177 174 185 199 218 267 305 313 308 298 337 128 218 233 186 188 197 159 113 136 165 191 216 196 188 243 254 283 347 287 275 285 272 256 238 230 237 254 253 232 232 235 245
106 203 280 265 215 196 194 212 196 210 216 219 220 206 214 224 182 179 182 185 188 170 179 207 189 182 191 177 198 214 192 197 221 221 223 242 266 291 186 176 170 185 209 191 149 170 176 188 187 193 222 233 237 235 221 201 164 210 237 206 200 192 170 173 207 177 220 230 202 196 244 253 289 357 281 264 294 287 271 257 240 241 251 259 253 241 227 212
112 207 223 254 259 234 235 313 187 230 219 217 221 210 212 225 215 185 181 186 197 186 190 205 173 170 190 187 201 220 211 211 216 211 217 224 236 290 214 188 184 201 201 156 130 145 138 229 204 199 214 223 234 242 188 131 145 198 221 209 199 198 188 190 211 206 220 234 226 222 237 250 264 261 238 252 253 254 260 257 249 250 252 258 262 259 244 218
186 201 183 185 252 246 240 230 202 224 240 207 204 205 211 222 232 200 189 194 194 191 205 215 172 178 193 195 208 221 215 215 218 220 223 217 228 286 182 183 209 217 195 156 150 130 111 246 229 218 227 232 244 248 192 144 178 203 209 205 197 198 191 191 214 224 221 228 241 236 230 245 257 244 218 233 232 231 247 248 240 243 245 253 260 260 256 244
202 220 207 185 166 214 226 222 200 218 249 250 217 213 214 217 219 213 203 194 187 189 202 217 200 200 201 197 207 222 215 214 221 226 229 225 230 276 38 221 233 208 156 160 198 151 148 230 231 229 239 242 253 257 205 173 209 207 204 207 199 193 192 199 217 226 223 220 240 246 235 235 250 248 226 221 223 223 233 230 226 239 255 261 254 249 256 259
178 261 280 240 111 187 188 150 156 202 231 240 237 233 225 220 219 214 192 183 201 197 198 214 216 212 211 207 206 216 214 211 220 225 225 224 210 183 212 246 244 174 151 173 212 168 168 226 226 223 237 243 252 257 224 192 223 235 215 212 204 197 197 205 217 224 225 226 237 250 249 244 249 249 231 220 220 222 231 234 232 246 256 254 248 246 249 248
165 179 217 52 14 229 128 103 120 171 221 221 224 229 224 229 234 228 193 189 205 195 195 215 225 216 211 213 215 223 221 214 223 225 214 217 217 194 207 221 192 111 142 167 234 347 181 226 221 203 230 246 249 253 239 199 206 235 233 218 215 214 211 214 219 222 227 231 236 244 253 257 255 241 211 215 216 220 236 242 241 242 244 250 255 253 245 240
165 140 161 119 177 226 219 161 148 154 217 202 210 224 223 230 236 243 238 214 212 208 196 211 226 224 214 214 217 225 226 220 226 227 205 201 216 205 202 210 194 180 161 169 178 148 166 226 219 167 218 242 241 245 243 220 209 244 249 233 223 221 219 219 220 220 220 223 233 240 248 256 253 199 182 218 204 204 224 224 229 239 238 243 249 246 239 236
177 107 132 133 197 212 201 209 186 196 227 214 206 224 234 242 236 230 256 242 221 226 221 215 222 224 219 222 222 224 229 226 229 234 220 214 230 223 212 216 203 184 171 177 180 162 167 184 207 192 212 243 244 241 234 217 224 243 241 236 231 226 223 225 230 230 224 216 223 228 233 246 246 182 205 235 208 205 223 214 216 232 233 236 240 237 234 235
Height
803 803 804 804 804 805 805 805 805 805 806 805 806 806 806 806 806 807 807 807 808 808 809 809 809 810 810 810 810 810 810 810 810 811 811 813 813 814 813 813 814 813 813 813 813 813 813 814 813 813 813 816 821 824 824 827 830 828 835 843 845 854 852 845 850 849 844 840 842 847 846 845 845 848 849 849 849 849 850 850 849 849 849 848 849 850 850 851
803 804 805 805 805 805 805 805 805 805 805 805 805 805 805 805 806 806 807 807 807 808 808 809 809 810 810 810 810 809 809 809 810 810 812 813 813 813 814 813 813 813 813 812 812 812 813 815 814 813 815 819 825 825 825 829 830 833 843 845 843 847 844 842 843 844 844 839 840 846 848 846 844 846 848 847 847 849 848 846 848 847 845 847 848 849 850 851
803 804 805 805 804 804 804 804 804 804 804 804 804 804 805 805 806 806 806 807 807 808 808 808 809 809 810 810 809 809 809 809 810 812 812 813 813 813 814 813 813 813 813 812 812 812 813 814 813 814 818 822 828 827 826 830 832 839 843 838 838 841 841 844 843 841 843 841 840 844 849 848 845 847 847 846 847 848 847 843 844 844 841 843 847 848 849 851
803 803 804 804 804 803 803 803 803 803 803 803 803 803 804 804 805 806 806 807 807 808 808 808 809 808 810 809 809 809 807 810 813 813 813 813 813 813 814 814 813 813 813 813 812 812 812 813 813 815 819 824 830 830 830 833 834 839 840 834 839 843 840 841 843 842 844 845 842 843 848 847 846 848 846 846 848 846 843 840 840 838 836 840 845 847 848 849
802 802 803 803 803 802 802 802 802 802 802 802 803 803 804 804 805 805 806 806 806 807 807 808 808 808 809 808 809 807 808 816 816 812 813 813 813 814 814 814 813 813 813 812 812 813 812 813 813 817 822 826 830 830 833 838 837 838 842 841 844 845 839 840 845 845 846 847 844 844 845 844 846 848 846 846 845 841 837 836 837 836 837 840 843 845 847 848
801 802 802 802 802 802 802 802 802 802 802 802 803 803 804 804 805 805 805 806 806 807 807 808 807 808 808 808 808 806 810 818 815 811 813 813 813 814 814 814 814 813 813 812 812 812 813 814 816 821 825 829 834 833 834 840 839 836 841 845 846 845 840 842 847 846 847 844 842 843 842 845 846 845 848 847 838 834 834 836 837 837 839 839 840 843 844 846
800 801 801 801 802 802 802 802 802 802 803 803 803 803 803 804 804 805 805 805 806 806 807 807 807 807 807 807 807 807 811 814 812 811 813 812 813 814 813 814 813 813 813 812 812 813 815 815 818 825 828 831 836 836 836 839 837 834 838 842 845 846 843 845 848 847 848 842 841 844 842 844 843 843 851 845 833 833 836 837 838 837 838 839 840 841 841 842
800 800 800 800 801 802 802 802 802 803 803 803 803 803 803 803 804 804 805 805 806 806 806 806 807 807 807 806 807 810 812 812 811 812 812 813 813 814 814 814 813 814 813 812 813 813 815 817 821 826 829 833 834 834 837 836 834 835 837 841 843 845 845 847 848 846 846 843 846 845 841 844 845 848 849 838 830 833 836 836 837 837 837 838 838 838 839 840
799 800 800 800 800 801 802 802 802 802 803 803 803 803 803 803 803 804 804 805 805 805 806 806 806 806 806 806 807 812 813 811 811 811 812 813 813 814 814 814 813 813 813 813 814 812 815 819 822 823 826 833 834 834 836 834 835 837 838 840 841 843 845 847 845 844 845 845 846 843 841 846 849 850 841 830 830 834 836 836 837 837 836 836 837 837 838 838
799 799 799 800 800 801 801 802 802 802 803 803 803 803 803 803 803 803 804 804 804 805 805 805 805 806 806 806 809 814 813 810 811 811 812 813 813 814 814 814 814 813 813 814 814 813 815 818 820 821 823 831 834 836 838 835 836 839 840 840 840 842 846 846 843 844 846 845 845 842 843 846 848 850 836 827 834 837 835 834 836 836 834 835 836 837 837 837
798 799 799 800 800 801 801 802 802 802 803 802 803 802 802 803 803 803 803 803 804 804 804 804 805 805 805 806 811 814 811 810 811 811 812 813 813 814 814 814 814 814 814 814 815 815 816 817 819 821 824 829 833 837 839 838 839 841 840 839 840 841 842 844 842 844 845 843 845 843 843 846 849 847 832 828 837 838 834 832 835 835 834 836 836 837 837 836
798 799 799 800 800 801 801 802 802 802 802 802 802 802 802 802 802 803 803 803 804 804 804 804 804 805 805 807 811 811 810 810 811 811 812 813 813 814 814 814 814 814 814 815 816 816 817 818 819 822 827 830 834 838 838 840 842 842 841 838 840 840 839 843 844 846 845 842 846 845 845 846 844 838 828 832 838 837 835 832 834 835 834 836 836 836 836 835
798 798 799 799 800 801 801 801 802 802 802 802 802 802 802 802 802 803 803 803 803 804 804 804 805 804 805 809 810 809 810 810 810 811 812 812 813 814 815 815 815 815 815 815 817 818 818 819 819 823 828 830 835 838 837 841 842 841 844 842 843 843 841 846 848 848 845 845 847 847 848 841 835 830 828 836 839 835 834 831 832 834 834 835 835 836 835 834
798 798 799 799 800 800 800 801 801 801 801 801 802 802 802 802 802 802 802 803 803 804 804 804 805 804 806 809 809 809 809 810 811 811 812 812 813 814 815 816 816 816 816 817 818 818 819 820 820 824 830 833 835 837 839 843 843 844 846 849 855 851 843 846 851 848 843 846 847 847 850 840 829 827 830 839 839 836 831 828 832 832 833 834 834 835 833 831
797 797 798 799 799 799 800 800 800 801 801 801 801 801 802 802 802 802 803 803 803 804 804 804 804 805 808 809 808 809 809 810 810 811 811 812 813 814 815 816 816 817 817 818 818 820 821 820 822 828 834 835 835 837 841 844 846 851 849 852 863 857 845 846 852 852 845 846 848 846 848 842 831 826 832 841 840 838 833 828 831 831 831 833 833 833 830 829
797 797 797 798 798 799 799 800 800 800 800 800 800 801 801 801 802 802 803 803 803 804 804 804 804 805 809 810 808 808 809 809 810 811 811 812 813 814 816 816 817 818 818 819 820 821 821 822 830 836 836 837 837 837 843 849 850 856 854 850 859 858 851 847 849 855 851 847 848 846 846 840 830 826 833 842 840 838 834 828 829 829 830 831 831 831 829 827
796 797 797 798 798 798 799 799 799 799 800 800 800 800 800 801 801 802 802 803 803 804 803 804 804 805 808 808 808 809 809 810 810 811 811 812 813 814 815 817 818 819 819 820 820 822 822 827 837 839 839 843 844 840 847 854 851 855 860 855 859 861 858 850 845 853 854 849 847 847 848 839 829 826 829 836 838 836 832 826 824 826 828 829 829 829 827 826
796 796 797 797 798 798 799 798 799 799 799 799 799 800 800 800 801 802 803 803 803 804 805 805 805 809 811 808 808 810 810 810 810 811 812 812 814 814 815 817 819 819 821 823 823 825 827 833 838 838 842 846 845 842 846 851 845 847 854 853 858 863 862 856 847 850 852 848 847 848 848 839 831 830 826 829 836 834 828 826 825 825 826 826 827 826 824 824
795 796 796 797 797 798 798 798 799 799 799 799 799 800 800 801 802 802 803 803 803 805 806 805 805 811 813 809 810 811 810 811 811 811 812 813 814 815 816 817 820 821 825 828 828 831 832 835 840 841 843 843 840 839 839 842 841 842 848 849 851 854 855 855 851 853 856 849 847 847 843 836 830 829 825 826 834 833 828 828 827 826 825 824 823 822 820 820
795 796 796 797 797 798 798 798 799 798 798 798 799 799 800 802 804 804 804 804 803 804 804 804 805 807 809 809 810 810 811 811 812 812 813 813 814 815 817 819 822 825 829 832 832 836 838 838 840 837 837 836 838 841 841 846 848 846 850 851 854 855 850 849 850 856 859 850 844 846 845 840 833 829 826 826 832 832 827 825 823 822 821 820 818 816 815 814
794 795 795 796 797 797 798 798 798 798 798 798 799 799 799 801 802 803 803 803 804 804 803 804 806 806 806 808 809 809 810 811 812 813 813 814 814 816 821 823 826 829 836 840 838 838 840 840 836 834 837 838 841 847 846 849 850 847 850 851 856 859 850 848 852 856 859 853 845 847 848 839 831 827 825 827 829 825 822 820 816 814 815 815 813 811 809 808
794 794 795 796 796 797 798 798 799 798 798 798 799 800 800 800 800 801 801 803 804 804 805 806 806 806 807 808 808 809 810 811 813 814 813 815 815 817 823 826 827 832 839 842 838 840 844 839 834 837 843 844 847 850 846 846 849 848 853 855 854 857 853 850 856 859 858 853 846 847 848 838 831 827 822 823 824 818 815 814 809 808 809 808 807 805 805 805
792 793 795 795 796 797 797 798 798 798 798 798 799 800 801 800 801 801 801 803 804 804 806 806 805 805 807 807 807 808 809 810 812 813 813 814 816 819 822 826 830 834 839 837 835 841 843 837 837 843 842 840 847 852 848 848 851 850 853 854 852 856 854 845 851 858 857 856 851 850 852 840 831 827 817 814 818 815 812 811 808 808 806 801 799 801 801 801
790 792 794 794 796 796 797 798 798 798 798 799 799 800 801 800 801 801 801 806 808 804 804 804 804 803 803 804 804 806 809 810 810 810 810 812 816 821 821 825 832 836 837 836 835 837 836 837 845 848 841 838 845 851 850 847 850 853 854 852 848 849 851 847 851 855 855 859 859 854 849 835 827 826 814 810 815 812 809 809 806 804 803 799 798 798 798 796
789 791 792 793 795 795 797 798 797 799 798 798 799 799 801 801 801 801 802 811 812 806 803 802 802 801 798 801 802 804 808 809 807 806 808 810 813 818 822 826 830 833 837 839 840 838 834 839 844 842 843 843 843 848 849 846 847 851 850 847 843 842 847 853 854 853 851 853 858 857 846 829 823 821 811 809 810 803 801 803 798 795 795 798 798 794 793 793
788 790 790 792 794 794 797 797 798 799 797 798 798 799 802 800 802 801 803 818 818 805 803 802 800 797 795 800 803 805 809 808 805 806 808 809 810 813 821 828 828 831 836 839 840 837 835 840 840 836 840 844 843 845 847 846 847 848 847 848 848 847 850 854 854 854 851 850 857 862 850 837 828 814 806 810 809 802 802 801 795 792 790 791 792 788 788 789
786 788 789 791 792 793 796 796 798 798 797 799 797 799 802 800 803 800 805 829 821 797 797 801 799 795 794 800 800 802 810 807 805 808 809 809 810 810 816 827 829 830 835 837 837 835 833 839 841 837 838 843 844 842 843 846 845 844 851 853 850 850 851 853 855 855 855 855 858 861 855 850 839 816 808 812 809 805 802 796 792 791 788 786 786 785 785 786
786 787 788 789 791 792 794 794 796 797 797 797 797 800 800 801 804 800 812 835 815 788 791 798 796 794 795 800 799 801 808 805 804 810 810 810 811 812 816 823 823 823 830 831 830 832 832 832 835 835 837 841 840 837 839 842 840 845 858 859 853 852 852 855 857 857 865 861 853 859 858 852 836 813 809 813 809 803 793 786 784 782 782 783 782 781 782 784
785 786 787 789 790 792 793 794 795 796 797 797 797 799 800 803 803 803 824 831 800 783 789 792 795 797 799 803 802 804 807 807 807 810 812 812 811 813 817 821 821 823 829 827 825 830 834 835 835 833 832 834 837 844 847 839 836 851 863 859 857 860 858 861 859 856 866 858 849 857 854 845 830 805 801 806 802 797 787 781 780 777 778 779 779 780 781 783
785 785 786 788 789 791 792 793 795 796 797 797 798 799 801 804 803 816 839 822 790 789 794 793 796 799 801 805 807 808 807 810 812 812 814 814 813 814 818 821 822 825 829 829 828 831 837 840 839 833 830 833 841 852 855 846 845 854 855 849 853 859 858 863 863 860 864 852 847 854 844 840 834 805 795 796 788 785 780 776 775 773 773 773 775 779 779 781
784 784 786 787 788 789 790 792 794 795 797 797 798 800 801 806 811 825 830 805 787 794 796 796 800 800 801 802 806 809 809 813 814 812 814 816 816 817 819 821 823 828 832 830 829 834 836 836 835 833 835 838 839 847 854 855 856 851 843 841 848 853 856 862 864 865 862 847 849 861 852 848 838 804 791 791 785 786 782 775 770 768 767 767 772 777 778 781
784 784 785 786 786 788 789 790 791 794 797 797 800 803 802 810 819 817 807 793 790 792 789 794 801 801 802 800 802 808 809 812 813 812 814 817 819 817 815 815 818 827 832 829 830 833 832 830 831 832 837 835 830 839 852 855 854 847 841 844 849 855 859 857 860 868 863 848 854 866 855 850 835 802 792 791 784 785 786 780 775 770 767 766 772 777 777 781
783 783 784 785 785 787 788 789 791 794 797 797 802 808 808 813 810 798 792 788 788 791 790 794 799 801 801 799 802 807 807 808 812 813 813 816 819 817 814 812 813 816 819 824 832 833 828 829 831 830 831 830 822 828 841 845 848 844 839 842 846 856 861 856 862 872 858 842 856 869 857 846 830 801 789 785 775 776 781 781 779 776 772 768 773 778 777 779
783 783 784 784 785 786 787 789 791 792 796 797 802 813 819 813 797 785 787 786 787 795 796 796 800 803 801 800 803 805 805 809 812 813 814 817 821 820 816 814 815 814 814 822 829 830 826 821 821 821 821 821 818 817 820 830 841 842 837 837 837 840 842 842 849 850 839 836 852 865 851 829 811 791 782 781 777 777 779 780 781 780 777 775 776 777 775 776
782 782 783 783 784 785 786 788 790 792 795 797 805 816 817 807 797 791 787 783 787 794 796 797 800 803 804 804 806 804 801 806 813 814 815 816 816 815 811 809 812 813 814 818 821 826 827 815 812 818 818 816 816 814 816 824 836 843 841 838 834 827 825 838 854 853 848 847 845 844 830 809 797 785 779 781 778 776 777 779 781 776 775 777 775 772 772 773
781 781 781 782 783 784 786 787 789 791 793 797 808 814 804 792 791 792 786 781 784 788 794 799 799 802 806 805 807 807 802 804 812 815 815 815 812 809 806 800 802 806 803 806 812 819 822 817 818 823 820 819 820 816 817 819 824 838 842 834 831 829 823 835 860 870 867 852 834 827 815 800 796 784 772 774 772 769 771 772 770 768 771 775 770 767 769 770
780 780 780 780 781 783 785 786 788 791 793 798 805 804 797 790 786 786 784 782 784 785 789 795 794 797 803 804 805 806 804 805 811 812 812 815 809 801 802 797 795 798 793 793 802 805 807 811 820 825 819 822 828 821 819 820 821 830 835 826 827 834 829 829 842 854 862 852 832 824 813 801 800 788 773 775 774 769 768 763 761 765 767 766 763 764 767 768
779 780 779 777 779 781 783 786 788 791 794 798 801 798 797 794 785 783 784 783 783 784 786 790 789 790 796 800 801 804 803 802 809 811 809 812 802 788 793 794 790 793 790 790 797 800 802 806 818 832 826 822 827 822 819 825 825 825 824 822 824 828 830 834 837 836 844 847 831 819 816 809 801 788 773 771 770 763 759 759 761 762 760 759 759 760 766 767
779 780 778 775 776 779 782 785 787 792 796 797 798 795 792 790 785 783 783 782 781 782 785 786 785 787 792 795 797 802 802 799 806 808 802 804 798 783 784 785 784 789 790 792 797 799 803 803 811 832 832 823 824 821 818 823 827 827 826 825 825 823 824 829 832 827 825 832 827 813 806 791 779 776 766 760 759 754 752 756 758 754 753 757 757 756 764 767
778 780 778 772 774 777 780 784 786 791 794 792 789 786 784 785 785 783 782 782 781 781 784 783 783 786 789 792 794 796 797 797 802 803 796 795 793 783 782 780 781 789 792 795 797 798 803 803 806 826 834 825 819 813 809 810 817 822 823 824 825 826 828 826 828 829 821 822 828 824 807 774 758 765 760 749 751 752 753 752 748 748 750 753 754 754 761 764
777 781 777 771 773 776 779 784 787 788 789 785 781 780 780 781 782 783 784 784 784 783 784 783 783 784 785 789 791 791 794 796 798 799 794 792 788 781 778 776 777 786 794 799 799 796 800 802 806 821 828 818 807 804 806 803 804 807 808 812 811 813 822 822 824 832 828 822 824 826 809 768 747 758 755 744 748 750 753 751 746 747 749 747 750 755 760 760
778 780 775 771 774 775 777 782 783 785 785 779 774 774 776 777 779 783 785 786 786 785 786 785 784 785 785 786 787 788 792 794 796 798 792 787 784 777 775 776 776 781 787 793 793 788 791 798 803 811 812 807 805 811 818 811 804 804 805 804 803 805 810 809 813 824 828 826 823 827 815 769 744 757 755 747 753 754 756 759 751 747 747 746 747 752 759 759
778 778 773 771 772 773 776 780 779 781 779 771 769 771 772 774 777 780 783 785 786 785 786 786 784 784 784 784 785 787 789 790 791 793 789 785 780 775 775 777 780 781 781 787 789 786 790 797 800 801 801 802 806 812 819 816 809 807 807 807 807 805 803 804 809 813 817 818 817 825 817 771 745 760 762 757 762 759 757 760 754 747 746 747 749 751 758 760
777 776 773 772 772 771 773 773 773 775 774 770 771 773 772 771 773 777 780 781 781 781 785 785 781 782 782 782 784 785 786 789 790 788 786 784 778 775 775 776 778 780 778 780 781 782 790 795 796 802 804 803 806 807 810 812 812 807 804 806 806 802 804 810 812 812 812 807 802 808 801 766 749 761 762 758 761 757 754 758 758 752 744 744 750 754 757 757
777 777 775 772 771 771 771 769 770 772 770 770 773 774 772 771 769 770 773 776 776 776 779 779 777 779 780 780 783 783 783 786 788 786 785 783 778 776 776 775 775 775 774 774 774 776 785 788 789 800 806 803 799 794 792 800 810 809 802 801 803 801 804 805 805 811 808 796 794 797 782 757 751 757 754 753 756 752 748 751 756 755 748 746 750 752 752 753
776 777 776 774 771 770 772 772 774 775 771 770 773 772 771 771 768 766 769 773 774 773 773 773 774 777 779 779 781 782 781 781 782 782 782 780 776 775 777 776 773 771 771 773 774 777 783 783 781 785 787 785 780 775 779 788 798 801 796 795 801 801 799 799 802 805 797 787 791 789 772 756 751 752 751 750 751 749 745 745 748 748 747 747 749 750 752 752
774 773 772 773 771 770 771 772 775 776 771 769 769 767 767 769 768 768 769 769 770 771 771 770 773 776 777 777 779 778 777 778 779 779 778 776 773 773 778 778 774 771 771 775 777 780 785 785 781 778 777 773 767 767 776 780 781 785 786 789 796 798 798 800 796 787 782 787 785 771 767 767 754 747 749 747 746 746 744 744 745 743 743 744 747 750 748 747
772 769 765 766 767 767 767 767 770 772 771 771 768 763 764 767 767 768 768 767 767 768 771 772 772 771 770 771 775 776 775 777 779 776 774 774 773 774 776 777 776 773 774 779 780 779 784 785 781 778 777 773 767 768 775 776 773 777 780 782 787 793 796 795 787 775 773 781 774 757 761 766 750 741 745 744 742 742 738 739 742 743 743 744 745 744 739 739
768 768 765 764 765 764 763 764 766 769 770 771 771 767 765 765 763 763 764 767 768 766 768 769 767 766 766 767 770 772 772 774 776 772 769 770 772 773 773 772 774 775 775 777 778 777 779 781 778 778 778 776 770 769 773 776 775 776 778 780 782 787 787 782 774 768 766 770 766 756 757 755 740 734 740 741 740 740 737 739 744 745 743 741 740 738 735 737
763 765 764 765 766 764 765 766 766 767 768 769 770 769 767 767 764 760 760 763 766 765 765 765 762 762 765 766 766 766 764 764 766 764 764 767 769 771 770 767 768 775 778 778 778 780 781 777 774 778 783 780 772 768 771 777 778 774 775 779 781 782 780 773 767 765 769 770 763 759 761 750 731 729 736 738 738 740 739 740 742 742 740 737 735 734 735 737
759 760 760 764 766 764 764 766 766 769 770 768 767 765 765 766 764 762 760 758 759 760 761 761 760 760 762 764 763 761 757 756 757 757 758 761 762 762 763 761 759 768 779 779 775 779 785 781 775 779 786 780 770 767 770 775 779 779 778 776 773 770 768 767 766 763 763 763 762 766 766 744 723 726 734 733 735 738 738 737 737 736 735 732 729 730 734 736
757 760 759 762 766 764 763 763 765 768 767 763 762 761 760 760 760 762 763 759 755 756 757 756 757 759 761 762 759 755 752 751 752 753 753 755 754 753 755 756 754 759 770 775 774 775 780 780 777 780 782 773 764 764 769 775 781 779 767 755 750 752 757 762 764 757 751 752 757 759 748 726 718 728 732 729 733 737 734 733 733 731 729 727 727 729 732 732